SCP
0 0 0 0 0 0 0 0 0 0 0 0 0 0 0 -0 -0 0 0 0 -0 0 0 0 0 0 0 0 0 0 0 0
0 0 0 0 0 -0 -0 -0 -0 -0 -0 -0 -0 -0 -0 -0 -0 0 0 0 0 0 0 0 0 0 0 0 0 0 0 0
0 0 0 0 0 -0 -0 -0 -0 -0 -0 -0 -0 -0 -0 -0 -0 -0 -0 0 0 0 0 0 0 0 0 0 0 0 0 0
0 0 0 0 0 0 0 0 -0 -0 -0 -0 -0 -0 -0 0 -0 -0 0 0 0 0 0 0 0 0 0 0 0 0 0 0
0 0 0 0 0 0 0 0 0 0 -0 -0 0 0 0 0 0 0 0 0 0 0 0 0 0 0 0 0 0 0 0 0
0 0 0 0 0 0 0 0 0 0 0 0 0 0 0 0 0 0 0 0 0 0 0 0 0 0 0 0 0 0 0 0
0 0 0 0 0 0 0 0 0 0 0 0 0 0 0 0 0 0 0 0 0 0 0 0 0 0 0 0 0 0 0 0
0 0 0 0 0 0 0 0 0 0 0 0 0 0 0 0 0 0 0 0 0 0 0 0 0 0 0 0 0 0 0 0
0 0 0 0 0 0 0 0 0 0 0 0 0 0 0 0 0 0 0 0 0 0 0 0 0 0 0 0 0 0 0 0
0 0 0 0 0 0 0 0 0 0 0 0 0 0 0 0 0 0 0 0 0 0 0 0 0 0 0 0 0 0 0 0
0 0 0 0 0 0 0 0 0 0 0 0 0 0 0 0 0 0 0 0 0 0 0 0 0 0 0 0 0 0 0 0
0 0 0 0 0 0 0 0 0 0 0 0 0 0 0 0 0 0 0 0 0 0 0 0 0 0 0 0 0 0 0 0
0 0 0 0 0 0 0 0 0 0 0 0 0 0 0 0 0 0 0 0 0 0 0 0 0 0 -0 0 0 0 0 0
0 0 0 0 0 0 0 0 0 0 0 0 0 0 0 0 0 0 0 0 0 0 0 0 0 0 -0 -0 0 0 0 0
0 0 0 0 0 0 0 0 0 0 0 0 0 0 0 0 0 0 0 0 0 0 0 0 0 0 0 0 0 0 0 0
0 0 0 0 0 0 0 0 0 0 0 0 0 0 0 0 0 0 0 0 0 0 0 0 0 0 0 0 0 0 -0 0
0 0 0 0 0 0 0 0 0 0 0 0 0 0 0 0 0 0 0 0 0 0 0 0 -0 -0 -0 -0 -0 -0 -0 -0
0 0 0 0 0 0 0 0 0 0 0 0 0 0 0 0 0 0 0 0 0 0 -0 -0 -0 -0 -0 -0 -0 -0 -0 -0
0 0 0 0 0 0 0 0 0 0 0 0 0 0 0 0 0 0 0 0 -0 -0 -0 -0 -0 -0 -0 -0 -0 -0 0 0
0 0 0 0 0 0 0 0 0 0 0 0 0 0 0 0 0 0 0 0 0 -0 -0 -0 -0 -0 -0 -0 0 0 0 0
Wind_Speed_500mb
30 28 27 25 22 19 19 20 20 17 15 15 15 15 16 15 13 12 10 8 7 6 4 3 4 5 6 9 12 12 13 14
28 27 27 26 24 22 21 19 18 15 13 13 13 12 13 9 8 8 6 5 4 3 1 3 5 5 7 9 12 14 17 17
25 26 27 26 25 21 20 19 17 15 12 12 12 10 9 6 5 3 2 4 5 6 6 7 6 4 5 8 10 12 14 14
23 23 22 21 21 19 17 15 13 11 9 8 8 8 6 6 7 9 10 12 14 13 11 12 11 11 13 15 16 17 15 17
22 22 20 19 16 14 13 12 10 10 10 11 11 11 11 10 13 14 14 16 17 16 17 14 14 17 19 20 22 23 25 28
25 22 19 16 13 14 10 11 14 17 17 15 15 14 16 18 20 21 23 21 22 22 24 25 27 28 29 29 29 28 24 25
25 24 22 19 17 15 15 15 14 15 15 16 19 20 23 23 22 24 26 27 30 32 32 32 33 29 30 29 30 28 27 25
22 22 22 20 21 19 17 17 16 19 24 30 30 26 23 26 23 28 30 25 21 25 26 25 26 21 22 25 21 22 20 24
14 15 15 14 15 14 15 17 18 18 16 15 14 15 15 17 20 20 22 23 25 27 26 24 24 23 22 15 10 7 8 9
12 10 9 10 8 7 5 4 3 3 2 4 4 5 5 5 7 8 7 9 11 14 14 13 12 8 8 6 3 2 5 10
11 9 9 4 4 3 3 4 4 6 7 6 7 8 9 9 10 11 12 11 9 9 10 7 2 6 8 12 9 4 7 12
19 13 16 10 7 5 6 7 8 9 8 9 11 11 12 12 12 13 14 13 13 16 16 12 8 13 14 11 8 8 16 18
29 34 24 16 10 5 6 7 9 10 12 14 14 16 17 18 19 20 21 20 22 21 24 21 13 11 8 1 5 6 18 16
34 32 28 22 11 1 4 8 9 13 16 15 20 20 20 22 23 24 25 25 25 28 30 31 34 14 5 8 1 9 23 13
33 29 28 20 12 5 8 9 10 13 16 17 22 22 22 24 25 25 25 27 29 34 36 37 37 37 33 15 8 10 17 13
35 34 32 21 13 9 9 8 9 14 16 19 22 23 21 23 24 26 27 31 33 36 37 37 36 38 36 36 28 28 18 15
35 35 28 25 21 10 5 8 11 15 20 20 21 22 22 23 26 27 28 31 35 35 35 36 38 40 42 40 36 32 39 22
33 34 31 25 17 10 9 13 16 21 23 20 21 20 22 23 24 26 27 29 32 34 36 36 39 41 42 42 41 37 35 34
34 33 33 29 23 16 16 18 25 25 23 21 20 19 20 21 21 22 23 28 31 33 33 35 38 39 40 39 38 39 40 40
36 36 34 31 27 24 23 27 28 26 23 21 19 17 18 19 17 17 23 27 29 30 31 33 36 37 38 39 39 40 42 43
Wind_Direction_500mb
167 168 164 162 166 170 170 169 163 157 149 140 135 134 132 124 121 122 119 122 123 131 149 195 236 258 278 286 289 293 295 297
170 170 168 170 175 179 177 172 168 164 163 163 154 152 153 150 148 141 128 121 132 134 177 256 260 272 285 288 297 307 310 305
173 176 176 179 182 182 177 176 178 181 187 194 189 186 194 204 203 215 271 284 295 293 303 319 319 294 328 332 328 323 327 329
173 179 181 187 187 184 185 183 190 197 199 198 196 213 212 244 257 272 293 303 301 299 291 297 297 299 300 303 304 303 310 305
167 176 176 191 194 194 197 197 202 213 216 230 238 246 260 266 278 281 286 306 301 297 294 301 298 300 302 304 300 296 289 282
179 181 183 186 199 204 218 243 242 241 243 246 253 264 268 267 275 283 283 286 289 291 293 299 296 296 294 287 284 284 290 284
184 189 189 191 198 211 228 245 256 271 273 271 266 264 268 268 274 278 275 277 283 284 283 284 287 286 287 281 280 279 280 282
190 196 202 195 209 213 225 245 259 271 277 277 280 275 268 276 280 284 286 289 282 288 287 290 292 293 292 287 283 281 282 291
182 186 195 197 212 225 243 256 265 274 281 287 285 280 279 276 281 275 281 287 296 291 290 290 288 287 279 277 271 287 291 305
193 204 205 186 184 195 215 250 283 301 350 358 352 344 336 339 329 320 327 341 325 321 314 309 295 266 235 218 221 120 352 318
179 216 188 192 193 177 109 65 65 73 67 66 67 62 56 45 39 32 31 21 3 1 359 356 9 128 139 129 110 70 36 24
192 218 230 212 180 128 80 73 71 79 85 88 80 73 66 54 54 52 50 54 59 53 45 59 113 125 128 125 102 43 25 4
211 211 208 190 178 125 61 66 88 94 99 88 85 83 81 78 77 78 78 78 74 73 66 67 105 125 132 6 328 346 354 27
182 189 195 190 190 156 101 94 105 104 97 104 94 87 88 87 82 79 76 75 77 75 74 74 72 79 102 155 27 341 345 29
186 189 194 197 189 170 117 93 118 122 114 106 103 100 95 90 85 81 80 79 73 70 66 66 69 69 67 73 57 19 9 357
187 193 201 196 199 159 110 115 125 129 122 119 111 107 101 95 88 80 76 74 71 66 63 62 62 63 60 60 61 47 29 350
186 194 198 205 201 169 123 156 148 148 137 128 121 114 108 96 84 75 68 66 65 63 61 59 56 53 49 44 38 28 24 13
188 190 195 202 205 198 170 161 160 155 145 139 130 122 112 96 83 72 66 64 63 58 54 51 49 45 41 36 32 28 15 10
189 192 194 197 205 200 181 171 163 156 150 147 138 123 109 101 87 76 69 64 61 57 51 48 44 40 35 30 24 16 9 3
192 194 197 194 199 194 183 173 167 158 156 150 139 127 116 104 99 84 69 61 56 51 47 43 41 35 29 24 17 10 6 3
Wind_Speed_850mb
30 28 27 25 22 19 19 20 20 17 15 15 15 15 16 15 13 12 10 8 7 6 4 3 4 5 6 9 12 12 13 14
28 27 27 26 24 22 21 19 18 15 13 13 13 12 13 9 8 8 6 5 4 3 1 3 5 5 7 9 12 14 17 17
25 26 27 26 25 21 20 19 17 15 12 12 12 10 9 6 5 3 2 4 5 6 6 7 6 4 5 8 10 12 14 14
23 23 22 21 21 19 17 15 13 11 9 8 8 8 6 6 7 9 10 12 14 13 11 12 11 11 13 15 16 17 15 17
22 22 20 19 16 14 13 12 10 10 10 11 11 11 11 10 13 14 14 16 17 16 17 14 14 17 19 20 22 23 25 28
25 22 19 16 13 14 10 11 14 17 17 15 15 14 16 18 20 21 23 21 22 22 24 25 27 28 29 29 29 28 24 25
25 24 22 19 17 15 15 15 14 15 15 16 19 20 23 23 22 24 26 27 30 32 32 32 33 29 30 29 30 28 27 25
22 22 22 20 21 19 17 17 16 19 24 30 30 26 23 26 23 28 30 25 21 25 26 25 26 21 22 25 21 22 20 24
14 15 15 14 15 14 15 17 18 18 16 15 14 15 15 17 20 20 22 23 25 27 26 24 24 23 22 15 10 7 8 9
12 10 9 10 8 7 5 4 3 3 2 4 4 5 5 5 7 8 7 9 11 14 14 13 12 8 8 6 3 2 5 10
11 9 9 4 4 3 3 4 4 6 7 6 7 8 9 9 10 11 12 11 9 9 10 7 2 6 8 12 9 4 7 12
19 13 16 10 7 5 6 7 8 9 8 9 11 11 12 12 12 13 14 13 13 16 16 12 8 13 14 11 8 8 16 18
29 34 24 16 10 5 6 7 9 10 12 14 14 16 17 18 19 20 21 20 22 21 24 21 13 11 8 1 5 6 18 16
34 32 28 22 11 1 4 8 9 13 16 15 20 20 20 22 23 24 25 25 25 28 30 31 34 14 5 8 1 9 23 13
33 29 28 20 12 5 8 9 10 13 16 17 22 22 22 24 25 25 25 27 29 34 36 37 37 37 33 15 8 10 17 13
35 34 32 21 13 9 9 8 9 14 16 19 22 23 21 23 24 26 27 31 33 36 37 37 36 38 36 36 28 28 18 15
35 35 28 25 21 10 5 8 11 15 20 20 21 22 22 23 26 27 28 31 35 35 35 36 38 40 42 40 36 32 39 22
33 34 31 25 17 10 9 13 16 21 23 20 21 20 22 23 24 26 27 29 32 34 36 36 39 41 42 42 41 37 35 34
34 33 33 29 23 16 16 18 25 25 23 21 20 19 20 21 21 22 23 28 31 33 33 35 38 39 40 39 38 39 40 40
36 36 34 31 27 24 23 27 28 26 23 21 19 17 18 19 17 17 23 27 29 30 31 33 36 37 38 39 39 40 42 43
Wind_Direction_850mb
167 168 164 162 166 170 170 169 163 157 149 140 135 134 132 124 121 122 119 122 123 131 149 195 236 258 278 286 289 293 295 297
170 170 168 170 175 179 177 172 168 164 163 163 154 152 153 150 148 141 128 121 132 134 177 256 260 272 285 288 297 307 310 305
173 176 176 179 182 182 177 176 178 181 187 194 189 186 194 204 203 215 271 284 295 293 303 319 319 294 328 332 328 323 327 329
173 179 181 187 187 184 185 183 190 197 199 198 196 213 212 244 257 272 293 303 301 299 291 297 297 299 300 303 304 303 310 305
167 176 176 191 194 194 197 197 202 213 216 230 238 246 260 266 278 281 286 306 301 297 294 301 298 300 302 304 300 296 289 282
179 181 183 186 199 204 218 243 242 241 243 246 253 264 268 267 275 283 283 286 289 291 293 299 296 296 294 287 284 284 290 284
184 189 189 191 198 211 228 245 256 271 273 271 266 264 268 268 274 278 275 277 283 284 283 284 287 286 287 281 280 279 280 282
190 196 202 195 209 213 225 245 259 271 277 277 280 275 268 276 280 284 286 289 282 288 287 290 292 293 292 287 283 281 282 291
182 186 195 197 212 225 243 256 265 274 281 287 285 280 279 276 281 275 281 287 296 291 290 290 288 287 279 277 271 287 291 305
193 204 205 186 184 195 215 250 283 301 350 358 352 344 336 339 329 320 327 341 325 321 314 309 295 266 235 218 221 120 352 318
179 216 188 192 193 177 109 65 65 73 67 66 67 62 56 45 39 32 31 21 3 1 359 356 9 128 139 129 110 70 36 24
192 218 230 212 180 128 80 73 71 79 85 88 80 73 66 54 54 52 50 54 59 53 45 59 113 125 128 125 102 43 25 4
211 211 208 190 178 125 61 66 88 94 99 88 85 83 81 78 77 78 78 78 74 73 66 67 105 125 132 6 328 346 354 27
182 189 195 190 190 156 101 94 105 104 97 104 94 87 88 87 82 79 76 75 77 75 74 74 72 79 102 155 27 341 345 29
186 189 194 197 189 170 117 93 118 122 114 106 103 100 95 90 85 81 80 79 73 70 66 66 69 69 67 73 57 19 9 357
187 193 201 196 199 159 110 115 125 129 122 119 111 107 101 95 88 80 76 74 71 66 63 62 62 63 60 60 61 47 29 350
186 194 198 205 201 169 123 156 148 148 137 128 121 114 108 96 84 75 68 66 65 63 61 59 56 53 49 44 38 28 24 13
188 190 195 202 205 198 170 161 160 155 145 139 130 122 112 96 83 72 66 64 63 58 54 51 49 45 41 36 32 28 15 10
189 192 194 197 205 200 181 171 163 156 150 147 138 123 109 101 87 76 69 64 61 57 51 48 44 40 35 30 24 16 9 3
192 194 197 194 199 194 183 173 167 158 156 150 139 127 116 104 99 84 69 61 56 51 47 43 41 35 29 24 17 10 6 3